Printer-friendly version

IAU Minor Planet Center

Minor Planet Center

MPEC 2007-N31 : COMET P/2007 H1 (McNAUGHT)

The following Minor Planet Electronic Circular may be linked-to from your own Web pages, but must not otherwise be redistributed electronically.


Read MPEC 2007-N30 Read MPEC 2007-N32


M.P.E.C. 2007-N31                                Issued 2007 July 13, 14:02 UT

     The Minor Planet Electronic Circulars contain information on unusual
         minor planets and routine data on comets.  They are published
   on behalf of Commission 20 of the International Astronomical Union by the
          Minor Planet Center, Smithsonian Astrophysical Observatory,
                          Cambridge, MA 02138, U.S.A.

             Prepared using the Tamkin Foundation Computer Network

                              MPC@CFA.HARVARD.EDU
          URL http://www.cfa.harvard.edu/iau/mpc.html  ISSN 1523-6714

                          COMET P/2007 H1 (McNAUGHT)

Observations:
    PK07H010  C2007 07 05.11496 23 54 18.83 -02 54 15.6          16.4 N EN031J51
    PK07H010  C2007 07 05.11948 23 54 19.20 -02 54 15.4          15.6 N EN031J51
    PK07H010  C2007 07 12.33318 00 01 29.90 -02 55 40.7          15.2 T EN031H51
    PK07H010  C2007 07 12.33381 00 01 29.91 -02 55 40.7          15.3 T EN031H51
    PK07H010  C2007 07 12.33443 00 01 29.95 -02 55 41.1          15.2 T EN031H51
    PK07H010  C2007 07 12.33569 00 01 29.99 -02 55 41.2          15.1 T EN031H51
    PK07H010  C2007 07 12.33632 00 01 30.05 -02 55 41.1          15.2 T EN031H51
    PK07H010  C2007 07 12.33696 00 01 30.05 -02 55 41.3          15.5 T EN031H51
    PK07H010  C2007 07 12.33821 00 01 30.11 -02 55 41.4          15.2 T EN031H51
    PK07H010  C2007 07 12.33946 00 01 30.17 -02 55 41.6          15.1 T EN031H51

Observer details:
H51 Greiner Research Observatory, Verona.  Observer M. Mills.  0.4-m f/8
    Ritchey-Chretien + CCD.
J51 Observatorio Atlante, Tenerife.  Observer J. A. Henriquez.  0.2-m f/9
    Cassegrain + CCD.

Orbital elements:
    P/2007 H1 (McNaught)
T 2007 Aug. 17.6692 TT                                  MPC
q   2.280790             (2000.0)            P               Q
n   0.1404911      Peri.  202.6185      +0.9695459      +0.2135780
a   3.664687       Node   144.3737      -0.1811693      +0.9547606
e   0.377630       Incl.   11.8740      -0.1647980      +0.2069220
P   7.02
From 71 observations 2007 Apr. 17-July 12.

Brian G. Marsden             (C) Copyright 2007 MPC           M.P.E.C. 2007-N31

Read MPEC 2007-N30 Read MPEC 2007-N32


Our Web policy. Index to the CBAT/MPC/ICQ pages.


Valid HTML 4.01!